Weather History for Winfield, KS

Change the Weather History Date:

Friday, March 29, 2013

  Actual Average Record
Temperature  
Mean Temperature 59 °F -  
Max Temperature 73 °F 62 °F 81 °F (2012)
Min Temperature 46 °F 40 °F 25 °F (2009)
Degree Days  
Heating Degree Days 6    
Growing Degree Days 9 (Base 50)    
Moisture  
Dew Point 52 °F    
Average Humidity 72    
Maximum Humidity 93    
Minimum Humidity 51    
Precipitation  
Precipitation 0.00 in - - ()
Sea Level Pressure  
Sea Level Pressure 30.09 in    
Wind  
Wind Speed 5 mph (ESE)    
Max Wind Speed 12 mph    
Max Gust Speed 20 mph    
Visibility 10 miles    
Events      
Averages and records for this station are not official NWS values.
T = Trace of Precipitation, MM = Missing Value Source: NWS Daily Summary

Daily Weather History Graph

Daily Weather History Graph

Search for Another Location

Airport:

Trip Planner

Search our weather history database for the weather conditions in past years. The results will help you decide how hot, cold, wet, or windy it might be!

Date:

Astronomy

Mar. 29, 2013 Rise Set
Actual Time 7:17 AM CDT 7:48 PM CDT
Civil Twilight 6:51 AM CDT 8:14 PM CDT
Nautical Twilight 6:21 AM CDT 8:45 PM CDT
Astronomical Twilight 5:49 AM CDT 9:16 PM CDT
Moon 10:45 PM CDT (3/29) 8:31 AM CDT (3/29)
Length of Visible Light 13h 22m
Length of Day
12h 30m
Waning Gibbous, 93% of the Moon is Illuminated
Mar 29
Waning Gibbous
Apr 2
Last Quarter
Apr 10
New
Apr 18
First Quarter
Apr 25
Full

Hourly Weather History & Observations

Time (CDT) Temp. Dew Point Humidity Pressure Visibility Wind Dir Wind Speed Gust Speed Precip Events Conditions
12:54 AM 57.9 °F 48.9 °F 72% 30.10 in 10.0 mi Calm Calm - N/A   Mostly Cloudy
1:54 AM 54.0 °F 48.9 °F 83% 30.10 in 10.0 mi ENE 4.6 mph - N/A   Mostly Cloudy
2:54 AM 50.0 °F 46.9 °F 89% 30.10 in 10.0 mi Calm Calm - N/A   Clear
3:54 AM 52.0 °F 48.0 °F 86% 30.09 in 10.0 mi East 3.5 mph - N/A   Clear
4:54 AM 46.9 °F 45.0 °F 93% 30.09 in 10.0 mi Calm Calm - N/A   Mostly Cloudy
5:54 AM 51.1 °F 48.0 °F 89% 30.10 in 10.0 mi Calm Calm - N/A   Mostly Cloudy
6:54 AM 50.0 °F 46.9 °F 89% 30.11 in 10.0 mi Calm Calm - N/A   Mostly Cloudy
7:54 AM 51.1 °F 48.0 °F 89% 30.13 in 8.0 mi East 5.8 mph - N/A   Scattered Clouds
8:54 AM 55.0 °F 50.0 °F 83% 30.14 in 10.0 mi East 6.9 mph - N/A   Clear
9:54 AM 61.0 °F 52.0 °F 72% 30.13 in 10.0 mi East 6.9 mph - N/A   Clear
10:54 AM 66.0 °F 54.0 °F 65% 30.12 in 10.0 mi East 9.2 mph - N/A   Clear
11:54 AM 66.9 °F 54.0 °F 63% 30.12 in 10.0 mi East 8.1 mph - N/A   Partly Cloudy
12:29 PM 69.8 °F 55.4 °F 60% 30.13 in 10.0 mi ESE 9.2 mph - N/A   Mostly Cloudy
12:46 PM 68.0 °F 53.6 °F 60% 30.12 in 10.0 mi East 11.5 mph - N/A   Mostly Cloudy
12:54 PM 69.1 °F 55.0 °F 61% 30.10 in 10.0 mi East 11.5 mph - N/A   Mostly Cloudy
1:54 PM 69.1 °F 55.0 °F 61% 30.09 in 10.0 mi ESE 11.5 mph - N/A   Overcast
2:54 PM 71.1 °F 54.0 °F 55% 30.08 in 10.0 mi SE 9.2 mph - N/A   Mostly Cloudy
3:54 PM 72.0 °F 54.0 °F 53% 30.06 in 10.0 mi SE 10.4 mph 19.6 mph N/A   Mostly Cloudy
4:54 PM 72.0 °F 53.1 °F 51% 30.05 in 10.0 mi SE 11.5 mph - N/A   Partly Cloudy
5:54 PM 70.0 °F 54.0 °F 57% 30.04 in 10.0 mi SE 10.4 mph - N/A   Partly Cloudy
6:54 PM 68.0 °F 54.0 °F 61% 30.05 in 10.0 mi ESE 11.5 mph - N/A   Clear
7:54 PM 64.9 °F 53.1 °F 65% 30.05 in 10.0 mi ESE 9.2 mph - N/A   Clear
8:54 PM 63.0 °F 53.1 °F 70% 30.06 in 10.0 mi ESE 9.2 mph - N/A   Clear
9:54 PM 61.0 °F 54.0 °F 78% 30.06 in 9.0 mi ESE 6.9 mph - N/A   Scattered Clouds
10:54 PM 59.0 °F 55.0 °F 87% 30.05 in 8.0 mi ESE 6.9 mph - N/A   Partly Cloudy
11:54 PM 57.9 °F 55.0 °F 90% 30.02 in 7.0 mi ESE 6.9 mph - N/A   Partly Cloudy